Location: Newark
(54.2500°N, 9.1833°E)
Time: 10:20:24
(UTC+00:00)

Vanguard 1 Rocket - Visible Passes

Search period start: 09 December 2019 00:00
Search period end: 19 December 2019 00:00
Orbit: 650 x 4226 km, 34.3° (Epoch: 08 December)

Date Brightness Start Highest point End Pass type
(mag) Time Alt. Az. Time Alt. Az. Time Alt. Az.
09 Dec 10.8 20:12:24 10° SSW 20:18:08 17° S 20:18:08 17° S visible
10 Dec 10.7 19:00:32 10° SSW 19:11:03 18° SSE 19:11:03 18° SSE visible
10 Dec 11.0 21:26:04 10° SW 21:28:21 14° SW 21:28:21 14° SW visible
11 Dec 10.8 17:50:21 10° S 17:59:07 15° SSE 18:03:58 12° SE visible
11 Dec 10.7 20:12:49 10° SW 20:21:15 22° SSW 20:21:15 22° SSW visible
12 Dec 10.5 19:00:08 10° SSW 19:13:26 23° SSE 19:14:09 23° SSE visible
12 Dec 10.9 21:27:19 10° SW 21:31:26 17° SW 21:31:26 17° SW visible
13 Dec 10.7 17:48:35 10° S 18:01:18 19° SSE 18:07:02 16° SE visible
13 Dec 10.5 20:13:34 10° SW 20:24:19 26° SSW 20:24:19 26° SSW visible
14 Dec 11.0 16:39:15 10° S 16:49:03 15° SE 16:57:08 10° ESE visible
14 Dec 10.4 19:00:16 10° SSW 19:15:43 27° SSE 19:17:11 27° SSE visible
14 Dec 10.9 21:28:44 10° WSW 21:34:28 20° SW 21:34:28 20° SW visible
15 Dec 10.6 17:47:54 10° SSW 18:03:26 24° SSE 18:10:02 19° SE visible
15 Dec 10.4 20:14:34 10° SW 20:27:19 29° SSW 20:27:19 29° SSW visible
16 Dec 10.9 16:37:03 10° S 16:51:01 19° SSE 17:01:52 10° ESE visible
16 Dec 10.3 19:00:48 10° SW 19:17:57 31° S 19:20:09 30° SSE visible
16 Dec 10.8 21:30:17 10° WSW 21:37:26 22° SW 21:37:26 22° SW visible
17 Dec 11.3 15:29:09 10° SSE 15:38:39 14° SE 15:46:56 10° ESE visible
17 Dec 10.5 17:47:49 10° SSW 18:05:32 28° SSE 18:12:58 21° SE visible
17 Dec 10.4 20:15:46 10° WSW 20:30:14 32° SSW 20:30:14 32° SSW visible
17 Dec 11.2 22:46:56 10° WSW 22:47:32 11° WSW 22:47:32 11° WSW visible
18 Dec 10.9 16:36:06 10° SSW 16:52:56 24° SSE 17:05:38 10° ESE visible
18 Dec 10.3 19:01:37 10° SW 19:20:08 34° S 19:23:03 32° SSE visible
18 Dec 10.8 21:31:56 10° WSW 21:40:20 24° SW 21:40:20 24° SW visible
